Location: Dos Palmas
(32.4468°N, 116.8732°W)
Time: 23:39:58
(UTC+00:00)

Cosmos 1190 Rocket - Pass Details

Date: 20 June 2021
Orbit: 756 x 781 km, 74.1° (Epoch: 01 August)

Event Time Altitude Azimuth Distance (km) Brightness Sun altitude
Rises 03:50:38 0° 340° (NNW) 3,259 8.3 -10.3°
Reaches altitude 10° 03:53:02 10° 338° (NNW) 2,331 7.5 -10.7°
Maximum altitude 03:58:17 70° 256° (WSW) 830 4.3 -11.6°
Drops below altitude 10° 04:03:33 10° 173° (S) 2,324 6.1 -12.4°
Enters shadow 04:04:11 - 173° (S) 2,568 6.3 -12.5°
